Location: Newark
(63.1158°N, 8.1461°E)
Time: 01:33:03
(UTC+00:00)

ISS - Visible Passes

Search period start: 07 December 2019 00:00
Search period end: 17 December 2019 00:00
Orbit: 411 x 421 km, 51.6° (Epoch: 07 December)

Date Brightness Start Highest point End Pass type
(mag) Time Alt. Az. Time Alt. Az. Time Alt. Az.
07 Dec -0.8 15:02:43 10° SSW 15:04:09 12° S 15:05:35 10° SSE visible
08 Dec -0.5 15:50:52 10° SSW 15:51:36 11° SSW 15:52:21 10° S visible
09 Dec -0.6 15:02:11 10° SSW 15:03:24 12° S 15:04:36 10° SSE visible
